Stations météo

Publicité
Besancon, France (7288): Température de l'air & dewpoint: 17.02.2017 01:00:00 - 23.02.2017 01:00:00 (CET)Besancon, France (7288): Température de l'air 5cm: 17.02.2017 01:00:00 - 23.02.2017 01:00:00 (CET)Besancon, France (7288): Température de l'air -20cm & Température de l'air -100cm: 17.02.2017 01:00:00 - 23.02.2017 01:00:00 (CET)Besancon, France (7288): Vitesse du vent & gusts: 17.02.2017 01:00:00 - 23.02.2017 01:00:00 (CET)Besancon, France (7288): Direction du vent: 17.02.2017 01:00:00 - 23.02.2017 01:00:00 (CET)Besancon, France (7288): reduced air pressure: 17.02.2017 01:00:00 - 23.02.2017 01:00:00 (CET)Besancon, France (7288): visibility: 17.02.2017 01:00:00 - 23.02.2017 01:00:00 (CET)Besancon, France (7288): Ensoleillement: 17.02.2017 01:00:00 - 23.02.2017 01:00:00 (CET)Besancon, France (7288): Quantités de précipitations: 17.02.2017 01:00:00 - 23.02.2017 01:00:00 (CET)
Date & Time tt [°C] td [°C] tt 5cm [°C] tt -20cm [°C] tt -100cm [°C] ff [km/h] ff [knt] fx [km/h] fx [knt] dd ppp [hPa] vv [km] sd [min] rr [mm]
23.02.2017 01:00:00 5,4 4,4 0,8 7,2 6,6 4 2 9 5 SSW 1018,3 - 0 0,0
23.02.2017 00:00:00 6,2 4,4 3,1 7,2 6,6 6 3 12 7 SSW 1018,5 - 0 0,0
22.02.2017 23:00:00 6,1 4,3 3,0 7,2 6,6 3 2 8 4 SSW 1018,8 - 0 0,0
22.02.2017 22:00:00 6,8 4,3 3,8 7,2 6,6 3 2 13 7 SSW 1019,4 - 0 0,0
22.02.2017 21:00:00 7,9 4,5 7,3 7,2 6,6 9 5 17 9 SW 1019,4 - 0 0,0
22.02.2017 20:00:00 7,9 4,3 7,2 7,2 6,6 8 5 19 10 SW 1019,7 - 0 0,0
22.02.2017 19:00:00 8,5 3,7 7,8 7,2 6,6 11 6 28 15 SW 1019,9 - 0 0,0
22.02.2017 18:00:00 8,9 3,9 8,7 7,1 6,6 15 8 31 17 SW 1019,7 - 0 0,0
22.02.2017 17:00:00 9,2 4,4 9,4 7,1 6,6 14 8 38 20 SW 1020,1 20 0 0,0
22.02.2017 16:00:00 9,4 4,4 10,1 7,1 6,6 16 9 37 20 SW 1019,9 20 0 0,0
22.02.2017 15:00:00 9,2 5,0 9,3 7,0 6,6 16 9 43 23 SW 1020,5 20 0 0,0
22.02.2017 14:00:00 9,5 5,1 10,2 7,0 6,6 16 8 37 20 SW 1021,0 20 0 0,0
22.02.2017 13:00:00 9,2 5,4 9,8 6,9 6,6 15 8 33 18 SW 1021,4 - 0 0,0
22.02.2017 12:00:00 9,0 5,9 8,2 6,9 6,5 14 8 32 18 SW 1021,9 17 0 0,0
22.02.2017 11:00:00 8,4 6,4 8,8 6,9 6,6 16 8 33 18 SW 1022,2 12 0 0,0
22.02.2017 10:00:00 8,7 6,5 8,7 6,9 6,5 16 9 29 16 SW 1021,8 12 0 0,0
22.02.2017 09:00:00 8,5 7,0 8,5 6,9 6,5 14 8 31 17 SW 1021,8 12 0 0,0
22.02.2017 08:00:00 8,6 7,1 8,3 6,9 6,6 15 8 29 16 SW 1021,4 12 0 0,0
22.02.2017 07:00:00 8,6 7,2 8,4 6,9 6,5 15 8 34 19 SSW 1020,8 14 0 -
22.02.2017 06:00:00 8,8 7,4 8,6 6,9 6,5 12 6 26 14 SW 1020,9 12 0 0,0
22.02.2017 05:00:00 9,1 7,9 8,8 6,8 6,5 13 7 26 14 SW 1021,0 - 0 0,0
22.02.2017 04:00:00 9,2 8,3 8,9 6,8 6,5 14 7 24 13 SW 1020,7 - 0 0,0
22.02.2017 03:00:00 9,4 8,5 9,1 6,8 6,5 11 6 22 12 SW 1021,4 - 0 0,0
22.02.2017 02:00:00 9,5 8,6 9,3 6,8 6,5 11 6 23 12 SW 1021,9 - 0 0,0
22.02.2017 01:00:00 9,6 8,7 9,4 6,8 6,5 12 6 23 13 SW 1022,1 - 0 0,0
22.02.2017 00:00:00 9,6 8,7 9,4 6,7 6,5 13 7 25 14 SW 1022,3 - 0 0,0
21.02.2017 23:00:00 9,6 8,8 9,2 6,7 6,5 10 5 22 12 SSW 1022,3 - 0 0,0
21.02.2017 22:00:00 9,7 8,8 9,4 6,7 6,5 11 6 23 12 SSW 1022,6 - 0 0,0
21.02.2017 21:00:00 10,0 8,8 9,7 6,6 6,5 13 7 26 14 SW 1022,6 - 0 0,0
21.02.2017 20:00:00 10,1 8,7 9,8 6,6 6,5 14 7 29 16 SW 1022,5 - 0 0,0
21.02.2017 19:00:00 10,0 8,8 9,7 6,5 6,5 13 7 27 15 SW 1022,7 - 0 0,0
21.02.2017 18:00:00 9,9 8,8 9,7 6,5 6,5 11 6 25 13 SSW 1022,5 - 0 0,0
21.02.2017 17:00:00 9,9 8,8 9,8 6,4 6,5 11 6 29 15 SSW 1022,5 1,2 0 0,0
21.02.2017 16:00:00 9,5 8,9 9,4 6,4 6,5 15 8 29 15 SSW 1022,7 1,2 0 0,0
21.02.2017 15:00:00 9,2 8,9 9,2 6,3 6,5 15 8 31 17 SSW 1022,8 1,2 0 0,0
21.02.2017 14:00:00 9,3 8,8 9,3 6,2 6,5 14 8 28 15 SSW 1023,1 0,8 0 0,0
21.02.2017 13:00:00 9,2 8,7 9,4 6,2 6,5 16 8 33 18 SW 1023,7 0,8 0 0,8
21.02.2017 12:00:00 9,0 8,7 8,9 6,1 6,5 13 7 26 14 SW 1024,0 0,8 0 1,4
21.02.2017 11:00:00 8,7 8,4 8,6 6,1 6,5 12 7 29 16 SW 1023,8 0,8 0 0,6
21.02.2017 10:00:00 8,5 8,2 8,2 6,1 6,5 13 7 33 18 SW 1023,7 1,0 0 0,0
21.02.2017 09:00:00 8,3 7,9 8,0 6,1 6,5 16 9 35 19 SW 1023,7 1,0 0 0,6
21.02.2017 08:00:00 8,2 7,8 7,9 6,0 6,5 16 9 38 20 SSW 1023,5 1,2 0 0,0
21.02.2017 07:00:00 8,0 7,6 7,7 6,0 6,5 16 9 37 20 SSW 1023,1 1,5 0 0,2
21.02.2017 06:00:00 7,8 7,5 7,6 6,0 6,5 11 6 31 17 SSW 1022,8 1,5 0 0,0
21.02.2017 05:00:00 7,7 7,3 7,5 6,0 6,5 14 8 28 15 SSW 1023,5 - 0 0,2
21.02.2017 04:00:00 7,7 7,3 7,4 5,9 6,5 11 6 24 13 SSW 1023,8 - 0 0,0
21.02.2017 03:00:00 7,5 7,2 7,3 5,9 6,5 9 5 23 13 SSW 1024,2 - 0 0,2
21.02.2017 02:00:00 7,5 7,2 7,2 5,9 6,5 9 5 23 12 SSW 1024,5 - 0 0,2
21.02.2017 01:00:00 7,4 7,0 7,1 5,8 6,5 7 4 24 13 SSW 1025,0 - 0 0,2
21.02.2017 00:00:00 7,3 6,9 6,9 5,8 6,5 10 5 23 12 SSW 1025,1 - 0 0,6
20.02.2017 23:00:00 7,1 6,7 6,8 5,8 6,5 12 6 27 14 SSW 1025,3 - 0 0,8
20.02.2017 22:00:00 7,8 5,9 6,8 5,8 6,5 13 7 26 14 SW 1025,2 - 0 0,0
20.02.2017 21:00:00 8,7 4,7 7,6 5,7 6,5 9 5 24 13 SSW 1024,9 - 0 0,0
20.02.2017 20:00:00 8,8 4,4 6,8 5,6 6,5 12 6 22 12 SW 1025,0 - 0 0,0
20.02.2017 19:00:00 9,5 3,5 8,8 5,5 6,5 10 6 22 12 SSW 1024,7 - 0 0,0
20.02.2017 18:00:00 9,7 3,2 9,4 5,4 6,5 10 6 26 14 SSW 1024,5 - 0 0,0
20.02.2017 17:00:00 10,1 2,9 10,5 5,3 6,5 10 5 27 15 SW 1024,3 20 0 0,0
20.02.2017 16:00:00 10,5 3,3 12,0 5,2 6,5 13 7 25 13 WSW 1024,4 20 4 0,0
20.02.2017 15:00:00 10,3 3,1 11,8 5,1 6,5 11 6 31 17 SW 1024,9 20 30 0,0
20.02.2017 14:00:00 9,2 2,7 10,6 5,0 6,5 12 6 25 14 SW 1025,7 12 0 0,0
20.02.2017 13:00:00 8,3 2,5 8,9 5,0 6,5 5 3 15 8 SSW 1026,5 10 0 0,0
20.02.2017 12:00:00 7,4 2,3 7,9 5,0 6,5 5 3 12 7 SSW 1027,4 10 0 0,0
20.02.2017 11:00:00 6,1 1,8 6,3 4,9 6,5 4 2 9 5 SW 1027,6 8 0 0,0
20.02.2017 10:00:00 5,3 1,4 5,3 5,0 6,5 7 4 14 7 SW 1027,1 8 0 0,0
20.02.2017 09:00:00 4,3 1,5 3,6 5,0 6,5 0 0 5 3 N 1027,2 8 0 0,0
20.02.2017 08:00:00 3,6 1,1 2,3 5,0 6,5 0 0 4 2 N 1027,2 8 0 0,0
20.02.2017 07:00:00 3,3 0,7 1,9 5,0 6,5 0 0 5 3 N 1026,8 6 0 0,0
20.02.2017 06:00:00 3,0 0,7 2,6 5,1 6,5 0 0 3 2 N 1027,2 3,0 0 0,0
20.02.2017 05:00:00 2,6 0,5 2,3 5,1 6,5 0 0 6 3 N 1027,0 - 0 0,0
20.02.2017 04:00:00 2,6 1,0 0,4 5,2 6,5 3 2 6 3 SSW 1026,9 - 0 0,0
20.02.2017 03:00:00 1,4 0,4 -1,9 5,3 6,5 0 0 3 2 N 1027,3 - 0 0,0
20.02.2017 02:00:00 1,2 0,2 -1,5 5,4 6,5 0 0 4 2 N 1028,1 - 0 0,0
20.02.2017 01:00:00 0,5 -0,5 -3,2 5,4 6,5 2 1 4 2 NE 1028,1 - 0 0,0
20.02.2017 00:00:00 1,1 -0,7 -2,4 5,5 6,5 0 0 4 2 N 1027,8 - 0 0,0
19.02.2017 23:00:00 1,8 0,2 -2,6 5,5 6,5 0 0 4 2 N 1027,8 - 0 0,0
19.02.2017 22:00:00 2,1 -0,5 -1,7 5,5 6,5 0 0 5 3 N 1026,9 - 0 0,0
19.02.2017 21:00:00 3,5 -0,5 -1,4 5,5 6,5 0 0 3 2 N 1026,5 - 0 0,0
19.02.2017 20:00:00 4,5 0,1 -0,9 5,5 6,5 0 0 3 2 N 1026,4 - 0 0,0
19.02.2017 19:00:00 6,6 -0,2 0,9 5,4 6,5 0 0 7 4 N 1025,7 - 0 0,0
19.02.2017 18:00:00 9,0 0,2 6,7 5,3 6,5 4 2 16 8 WSW 1024,9 - 50 0,0
19.02.2017 17:00:00 10,6 0,6 12,3 5,1 6,5 9 5 22 12 W 1024,7 20 60 0,0
19.02.2017 16:00:00 11,2 1,7 15,0 5,0 6,5 10 6 21 11 WSW 1024,6 20 60 0,0
19.02.2017 15:00:00 10,7 2,0 13,3 4,9 6,5 9 5 23 12 WSW 1025,4 20 60 0,0
19.02.2017 14:00:00 10,4 1,5 15,6 4,8 6,5 11 6 23 13 W 1025,7 20 60 0,0
19.02.2017 13:00:00 9,5 1,4 16,0 4,8 6,5 11 6 21 12 SW 1026,1 20 60 0,0
19.02.2017 12:00:00 8,7 1,6 13,6 4,8 6,5 8 4 21 11 WSW 1026,9 20 60 0,0
19.02.2017 11:00:00 7,3 0,7 12,2 4,9 6,5 6 3 16 9 WSW 1027,1 20 60 0,0
19.02.2017 10:00:00 3,8 0,5 -0,2 5,0 6,5 2 1 7 4 SW 1027,3 20 60 0,0
19.02.2017 09:00:00 -0,9 -1,5 -5,1 5,1 6,5 2 1 4 2 NNE 1027,7 20 44 0,0
19.02.2017 08:00:00 -2,0 -2,7 -5,7 5,2 6,5 0 0 8 4 N 1027,4 20 0 0,0
19.02.2017 07:00:00 -1,6 -2,0 -6,0 5,3 6,5 5 3 8 4 NNE 1026,8 15 0 0,0
19.02.2017 06:00:00 -1,5 -1,9 -6,0 5,4 6,5 2 1 5 3 NE 1026,9 15 0 0,0
19.02.2017 05:00:00 -1,2 -1,8 -5,4 5,5 6,5 0 0 4 2 N 1026,7 - 0 0,0
19.02.2017 04:00:00 -0,3 -0,9 -5,1 5,6 6,5 3 2 4 2 NNE 1026,5 - 0 0,0
19.02.2017 03:00:00 0,3 -0,4 -5,0 5,7 6,5 0 0 3 2 N 1026,5 - 0 0,0
19.02.2017 02:00:00 0,6 -0,1 -4,2 5,8 6,5 2 1 4 2 NNE 1026,3 - 0 0,0
19.02.2017 01:00:00 1,5 0,5 -3,2 5,8 6,5 0 0 4 2 N 1026,0 - 0 0,0
19.02.2017 00:00:00 1,9 0,6 -2,8 5,9 6,5 2 1 3 2 ENE 1025,8 - 0 0,0
18.02.2017 23:00:00 2,3 0,8 -2,1 5,9 6,5 0 0 5 3 N 1025,6 - 0 0,0
18.02.2017 22:00:00 3,2 1,1 -1,6 6,0 6,5 3 1 8 4 NE 1025,5 - 0 0,0
18.02.2017 21:00:00 4,0 1,4 0,1 6,0 6,4 5 3 10 5 N 1025,5 - 0 0,0
18.02.2017 20:00:00 4,9 1,9 0,6 5,9 6,4 3 2 14 7 NE 1025,2 - 0 0,0
18.02.2017 19:00:00 5,6 1,7 1,1 5,9 6,4 4 2 16 9 NE 1025,0 - 0 0,0
18.02.2017 18:00:00 7,9 2,4 5,1 5,7 6,4 6 4 21 11 NE 1024,4 - 47 0,0
18.02.2017 17:00:00 10,0 2,8 12,1 5,6 6,4 10 5 22 12 NE 1023,9 30 60 0,0
18.02.2017 16:00:00 10,8 2,6 15,4 5,5 6,4 13 7 23 13 NNE 1023,6 - 60 0,0
18.02.2017 15:00:00 11,0 3,0 13,6 5,4 6,4 8 4 28 15 NE 1023,5 30 60 0,0
18.02.2017 14:00:00 11,0 3,3 17,1 5,3 6,4 6 3 32 17 ENE 1023,7 30 60 0,0
18.02.2017 13:00:00 9,8 4,0 16,6 5,3 6,4 9 5 31 17 NE 1024,6 25 60 0,0
18.02.2017 12:00:00 8,6 3,4 16,1 5,4 6,4 9 5 30 16 NE 1025,4 25 60 0,0
18.02.2017 11:00:00 7,9 3,0 14,7 5,4 6,4 6 4 18 10 NE 1025,6 25 60 0,0
18.02.2017 10:00:00 5,1 3,6 0,1 5,6 6,4 2 1 10 6 NE 1026,1 20 60 0,0
18.02.2017 09:00:00 0,5 0,2 -3,8 5,6 6,4 0 0 6 4 N 1027,2 20 41 0,0
18.02.2017 08:00:00 -0,1 -0,4 -4,8 5,8 6,4 0 0 8 5 N 1027,3 12 0 0,0
18.02.2017 07:00:00 -0,9 -1,2 -5,0 5,9 6,4 0 0 3 1 N 1027,3 6 0 0,0
18.02.2017 06:00:00 -0,5 -0,8 -5,0 6,0 6,4 0 0 3 1 N 1027,7 6 0 0,0
18.02.2017 05:00:00 -0,8 -1,2 -5,1 6,1 6,4 0 0 3 2 N 1027,5 - 0 0,0
18.02.2017 04:00:00 0,3 -0,3 -4,1 6,2 6,4 0 0 3 2 N 1027,5 - 0 0,0
18.02.2017 03:00:00 1,0 0,7 -3,6 6,3 6,4 0 0 4 2 N 1027,8 - 0 0,0
18.02.2017 02:00:00 0,5 -0,1 -3,7 6,5 6,4 0 0 4 2 N 1028,5 - 0 0,0
18.02.2017 01:00:00 0,8 0,2 -3,4 6,5 6,4 2 1 5 3 NE 1028,9 - 0 0,0
18.02.2017 00:00:00 1,3 0,3 -2,7 6,6 6,3 2 1 6 4 NNE 1028,9 - 0 0,0
17.02.2017 23:00:00 1,9 0,7 -2,2 6,7 6,3 0 0 4 2 N 1029,0 - 0 0,0
17.02.2017 22:00:00 2,8 1,5 -1,5 6,7 6,3 3 1 5 3 NNE 1029,3 - 0 0,0
17.02.2017 21:00:00 4,3 2,2 -0,1 6,7 6,3 3 2 6 3 NNE 1029,0 - 0 0,0
17.02.2017 20:00:00 6,0 3,0 1,2 6,7 6,3 3 2 5 3 NNE 1028,6 - 0 0,0
17.02.2017 19:00:00 7,6 2,7 4,5 6,6 6,3 0 0 2 1 N 1028,5 - 0 0,0
17.02.2017 18:00:00 8,8 2,8 7,4 6,5 6,3 2 1 10 6 N 1027,8 - 0 0,0
17.02.2017 17:00:00 9,3 3,3 9,4 6,5 6,3 4 2 12 6 N 1027,7 8 0 0,0
17.02.2017 16:00:00 9,5 4,3 10,0 6,4 6,3 6 3 13 7 NNW 1027,7 6 0 0,0
17.02.2017 15:00:00 10,0 4,6 10,9 6,3 6,3 6 3 10 6 NNW 1027,9 6 13 0,0
17.02.2017 14:00:00 10,3 4,9 10,8 6,2 6,3 0 0 14 8 N 1028,0 6 7 0,0
17.02.2017 13:00:00 9,1 6,2 10,0 6,1 6,3 6 4 16 8 N 1028,7 3,0 0 0,0
17.02.2017 12:00:00 9,0 6,8 9,2 6,1 6,3 5 3 13 7 N 1029,0 3,0 0 0,0
17.02.2017 11:00:00 8,7 6,8 9,5 6,1 6,3 4 2 11 6 NW 1029,5 2,0 1 0,0
17.02.2017 10:00:00 7,8 7,2 6,5 6,0 6,3 6 3 10 5 WSW 1029,1 2,0 1 0,0
17.02.2017 09:00:00 6,6 6,2 4,6 6,1 6,3 0 0 4 2 N 1029,1 2,0 0 0,0
17.02.2017 08:00:00 7,0 6,4 5,5 6,1 6,3 0 0 10 6 N 1028,9 3,0 0 0,0
17.02.2017 07:00:00 7,2 6,8 6,8 6,1 6,3 4 2 11 6 WSW 1028,8 4,0 0 0,0
17.02.2017 06:00:00 7,5 6,9 7,0 6,0 6,3 3 2 9 5 SW 1028,8 4,0 0 0,6
17.02.2017 05:00:00 7,6 6,7 7,0 6,1 6,3 4 2 8 4 W 1029,0 - 0 0,0
17.02.2017 04:00:00 7,8 6,3 6,9 6,1 6,3 0 0 10 5 N 1029,0 - 0 0,0
17.02.2017 03:00:00 7,1 6,2 6,0 6,1 6,3 2 1 7 4 W 1029,5 - 0 0,0
17.02.2017 02:00:00 6,7 6,3 4,3 6,1 6,3 3 1 5 3 NNE 1029,6 - 0 0,0
17.02.2017 01:00:00 6,8 6,1 3,4 6,1 6,3 0 0 3 2 N 1030,0 - 0 0,0

tt = Température de l'air
td = dewpoint
tt 5cm = Température de l'air 5cm
tt -20cm = Température de l'air -20cm
tt -100cm = Température de l'air -100cm
ff = Vitesse du vent
fx = gusts
dd = Direction du vent
ppp = reduced air pressure
vv = visibility
sd = Ensoleillement
rr = Quantités de précipitations

stations d'obs. à proximité